Flag for Germany Weather past 2 weeks in Erlangen, Bavaria, Germany

Now
46 °F

Clear.


Feels Like: 44 °F
Forecast: 34 / 51 °F
Wind: 6 mph from Southeast

Location: Nuernberg


UV Index: 3 (Moderate)

Visibility: 10 mi


Pressure: 29.98 "Hg

Humidity: 46%

Dew point: 27 °F

Location of ErlangenLocation

Historic Weather in Erlangen

°F

Erlangen temperature yesterday

Maximum temperature yesterday: 52 °F (at 3:50 PM)
Minimum temperature yesterday: 30 °F (at 6:50 AM)
Average temperature yesterday: 43 °F

Past Weeks' High & Low Weather Summary

 TemperatureHumidityPressure
High73 °F (Apr 4, 2:20 PM)100% (Apr 5, 5:50 AM)30.36 "Hg (Apr 5, 5:50 AM)
Low27 °F (Apr 17, 6:20 AM)28% (Apr 17, 2:50 PM)29.68 "Hg (Apr 3, 3:20 AM)
Average52 °F67%30.03 "Hg
* Reported Apr 2 9:20 PM — Apr 17 9:20 PM, Erlangen, Weather by CustomWeather, © 2014

Note: Actual official high and low records may vary slightly from our data, if they occured in-between our weather recording intervals... More about our weather records

Advertising

Historic Weather Conditions — Data for Previous 24 hours

 ConditionsComfort  
Time TempWeatherWind HumidityBarometerVisibility
9:20 PM
Apr 17
48 °FPassing clouds.3 mph43%30.01 "HgN/A
8:50 PM50 °FSunny.2 mph37%30.01 "Hg10 mi
8:20 PM54 °FPassing clouds.5 mph30%30.01 "HgN/A
7:50 PM54 °FPassing clouds.6 mph33%30.01 "HgN/A
6:50 PM55 °FPassing clouds.5 mph33%30.04 "HgN/A
6:20 PM55 °FSunny.2 mph31%30.04 "Hg10 mi
5:50 PM55 °FPassing clouds.7 mph31%30.07 "HgN/A
5:20 PM55 °FPassing clouds.7 mph31%30.07 "HgN/A
4:50 PM55 °FPassing clouds.5 mph31%30.09 "HgN/A
4:20 PM57 °FPassing clouds.9 mph29%30.09 "HgN/A
3:50 PM57 °FPassing clouds.6 mph31%30.12 "HgN/A
3:20 PM55 °FPassing clouds.7 mph28%30.12 "HgN/A
2:50 PM55 °FSunny.7 mph28%30.15 "Hg10 mi
2:20 PM55 °FSunny.7 mph33%30.15 "Hg10 mi
1:50 PM54 °FSunny.7 mph30%30.18 "Hg10 mi
1:20 PM54 °FPassing clouds.8 mph30%30.21 "HgN/A
12:50 PM52 °FSunny.5 mph32%30.21 "Hg10 mi
12:20 PM52 °FSunny.7 mph32%30.24 "Hg10 mi
11:50 AM50 °FSunny.7 mph35%30.24 "Hg10 mi
11:20 AM50 °FPassing clouds.9 mph35%30.27 "HgN/A
10:50 AM48 °FSunny.6 mph37%30.27 "Hg10 mi
10:20 AM48 °FPassing clouds.6 mph43%30.30 "HgN/A
9:20 AM43 °FPassing clouds.5 mph61%30.30 "HgN/A
8:50 AM39 °FSunny.5 mph70%30.30 "Hg10 mi
8:20 AM39 °FSunny.No wind65%30.30 "Hg10 mi
7:50 AM34 °FSunny.1 mph81%30.30 "Hg10 mi
7:20 AM30 °FSunny.1 mph86%30.30 "Hg10 mi
6:50 AM28 °FClear.1 mph93%30.30 "Hg10 mi
6:20 AM27 °FClear.1 mph93%30.30 "Hg10 mi
5:50 AM30 °FClear.5 mph86%30.30 "Hg10 mi
5:20 AM30 °FClear.3 mph86%30.30 "Hg10 mi
4:50 AM30 °FClear.No wind86%30.33 "Hg10 mi
4:20 AM30 °FPassing clouds.3 mph86%30.33 "HgN/A
3:50 AM30 °FClear.No wind93%30.33 "Hg10 mi
3:20 AM30 °FClear.1 mph86%30.33 "Hg10 mi
2:50 AM30 °FClear.1 mph93%30.36 "Hg10 mi
2:20 AM32 °FClear.No wind80%30.36 "Hg10 mi
1:50 AM32 °FClear.2 mph87%30.36 "Hg10 mi
1:20 AM32 °FClear.2 mph80%30.36 "Hg10 mi
12:50 AM32 °FClear.2 mph80%30.36 "Hg10 mi
12:20 AM36 °FClear.2 mph75%30.36 "Hg10 mi
11:50 PM
Apr 16
36 °FClear.1 mph75%30.36 "Hg10 mi
11:20 PM36 °FClear.1 mph75%30.36 "Hg10 mi
10:50 PM37 °FClear.No wind75%30.36 "Hg10 mi
10:20 PM37 °FClear.1 mph75%30.36 "Hg10 mi
Weather by CustomWeather, © 2014

See weather overview